Sedalia, MO

9:04 PM CST on February 20, 2017 (GMT -0600)
Sedalia Memorial

Weather History for KDMO - May, 2013

Change the Weather History Date:

Monday, May 27, 2013

  Actual Average Record
Temperature  
Mean Temperature 71 °F 69 °F  
Max Temperature 78 °F 79 °F 93 °F (2012)
Min Temperature 63 °F 59 °F 38 °F (1992)
Degree Days  
Heating Degree Days 0 1  
Month to date heating degree days 137 79  
Since 1 July heating degree days 4736 4561  
Cooling Degree Days 6 5  
Month to date cooling degree days 86 81  
Year to date cooling degree days 112 115  
Growing Degree Days 20 (Base 50)    
Moisture  
Dew Point 64 °F    
Average Humidity 80    
Maximum Humidity 90    
Minimum Humidity 69    
Precipitation  
Precipitation 0.60 in 0.14 in 1.21 in (2000)
Month to date precipitation 5.44 4.10  
Year to date precipitation 19.16 14.56  
Sea Level Pressure  
Sea Level Pressure 29.91 in    
Wind  
Wind Speed 10 mph (ESE)    
Max Wind Speed 29 mph    
Max Gust Speed 35 mph    
Visibility 8 miles    
Events Rain , Thunderstorm    
T = Trace of Precipitation, MM = Missing Value Source: NWS Daily Summary

Daily Weather History Graph

Daily Weather History Graph

Search for Another Location

Airport or City:

Trip Planner

Search our weather history database for the weather conditions in past years. The results will help you decide how hot, cold, wet, or windy it might be!

Date:

Astronomy

May. 27, 2013 Rise Set
Actual Time 5:51 AM CDT 8:28 PM CDT
Civil Twilight 5:21 AM CDT 8:59 PM CDT
Nautical Twilight 4:42 AM CDT 9:37 PM CDT
Astronomical Twilight 3:59 AM CDT 10:21 PM CDT
Moon 11:08 PM CDT (5/27) 8:29 AM CDT (5/27)
Length of Visible Light 15h 38m
Length of Day
14h 36m
Waning Gibbous, 91% of the Moon is Illuminated
May 27
Waning Gibbous
May 31
Last Quarter
Jun 8
New
Jun 16
First Quarter
Jun 23
Full

Hourly Weather History & Observations

Time (CDT) Temp. Dew Point Humidity Pressure Visibility Wind Dir Wind Speed Gust Speed Precip Events Conditions
12:53 AM 75.0 °F 64.0 °F 69% 30.01 in 10.0 mi Calm Calm - N/A   Overcast
1:18 AM 69.8 °F 59.0 °F 68% 30.06 in 10.0 mi NNE 17.3 mph 35.7 mph 0.00 in Rain Light Rain
1:30 AM 66.2 °F 59.0 °F 78% 30.06 in 6.0 mi NE 13.8 mph 24.2 mph 0.06 in Rain , Thunderstorm Light Rain
1:46 AM 64.4 °F 60.8 °F 88% 30.04 in - ENE 6.9 mph - N/A Thunderstorm Thunderstorm
1:53 AM 64.9 °F 60.1 °F 84% 30.01 in 4.0 mi East 5.8 mph - N/A Rain , Thunderstorm Light Thunderstorms and Rain
2:31 AM 64.4 °F 60.8 °F 88% 30.01 in 10.0 mi SE 10.4 mph - 0.03 in   Overcast
2:53 AM 64.0 °F 61.0 °F 90% 29.99 in 10.0 mi SSE 8.1 mph - 0.03 in   Overcast
3:53 AM 64.0 °F 61.0 °F 90% 29.96 in 10.0 mi SSE 5.8 mph - N/A   Overcast
4:53 AM 64.0 °F 60.1 °F 87% 29.93 in 10.0 mi South 11.5 mph - N/A   Scattered Clouds
5:53 AM 64.0 °F 60.1 °F 87% 29.91 in 10.0 mi South 10.4 mph - N/A   Scattered Clouds
6:53 AM 66.0 °F 61.0 °F 84% 29.91 in 10.0 mi SSE 8.1 mph - N/A   Overcast
7:53 AM 68.0 °F 64.0 °F 87% 29.90 in 10.0 mi SSE 9.2 mph - N/A   Mostly Cloudy
8:53 AM 71.1 °F 66.0 °F 84% 29.86 in 10.0 mi SSE 11.5 mph - N/A   Clear
9:53 AM 72.0 °F 66.0 °F 81% 29.86 in 10.0 mi South 11.5 mph - N/A   Clear
10:53 AM 72.0 °F 66.9 °F 84% 29.89 in 10.0 mi South 10.4 mph - N/A   Mostly Cloudy
11:27 AM 71.6 °F 66.2 °F 83% 29.93 in 9.0 mi North 11.5 mph - N/A   Mostly Cloudy
11:53 AM 68.0 °F 64.0 °F 87% 29.93 in 9.0 mi North 9.2 mph - 0.01 in Rain Light Rain
12:02 PM 66.2 °F 62.6 °F 88% 29.95 in 7.0 mi North 15.0 mph 24.2 mph 0.01 in Rain Light Rain
12:32 PM 64.4 °F 62.6 °F 94% 29.96 in 6.0 mi NNE 10.4 mph - 0.07 in Rain , Thunderstorm Light Thunderstorms and Rain
12:41 PM 64.4 °F 62.6 °F 94% 30.00 in 2.0 mi North 13.8 mph - 0.18 in Rain , Thunderstorm Heavy Thunderstorms and Rain
12:48 PM 64.4 °F 62.6 °F 94% 30.00 in 1.5 mi North 8.1 mph - 0.25 in Rain , Thunderstorm Heavy Thunderstorms and Rain
12:53 PM 64.9 °F 62.1 °F 90% 30.00 in 1.5 mi NW 8.1 mph - 0.29 in Rain , Thunderstorm Heavy Thunderstorms and Rain
12:56 PM - - N/A% - - North - - 0.02 in   Unknown
1:04 PM 64.4 °F 62.6 °F 94% 29.99 in - NNE 3.5 mph - 0.10 in Rain , Thunderstorm Heavy Thunderstorms and Rain
1:12 PM 64.4 °F 62.6 °F 94% 29.95 in 2.0 mi NE 9.2 mph - 0.13 in Rain , Thunderstorm Thunderstorms and Rain
1:21 PM 64.4 °F 62.6 °F 94% 29.97 in 4.0 mi East 6.9 mph - 0.15 in Rain , Thunderstorm Light Thunderstorms and Rain
1:53 PM 64.9 °F 63.0 °F 93% 29.93 in 4.0 mi East 5.8 mph - 0.19 in Rain , Thunderstorm Rain
2:05 PM 64.4 °F 62.6 °F 94% 29.91 in 10.0 mi SE 10.4 mph - 0.01 in Rain Light Rain
2:53 PM 64.9 °F 63.0 °F 93% 29.80 in 10.0 mi SSE 20.7 mph - 0.01 in   Partly Cloudy
3:53 PM 72.0 °F 66.0 °F 81% 29.76 in 10.0 mi SSE 9.2 mph - N/A   Clear
4:53 PM 75.0 °F 66.9 °F 76% 29.77 in 10.0 mi SE 13.8 mph - N/A   Clear
5:53 PM 77.0 °F 68.0 °F 74% 29.74 in 10.0 mi SE 12.7 mph - N/A   Clear
6:53 PM 75.9 °F 69.1 °F 79% 29.73 in 10.0 mi SSE 12.7 mph - N/A   Partly Cloudy
7:53 PM 73.0 °F 68.0 °F 84% 29.73 in 10.0 mi SE 9.2 mph - N/A   Scattered Clouds
8:53 PM 71.1 °F 66.9 °F 87% 29.74 in 10.0 mi SE 4.6 mph - N/A   Clear
9:53 PM 70.0 °F 66.9 °F 90% 29.76 in 10.0 mi ESE 3.5 mph - N/A   Clear
10:53 PM 71.1 °F 68.0 °F 90% 29.80 in 10.0 mi SSE 5.8 mph - N/A   Overcast
11:53 PM 73.0 °F 66.0 °F 79% 29.76 in 10.0 mi SSE 12.7 mph - N/A   Overcast